Location: Unspecified
(0.0000°N, 0.0000°E)
Time: 07:13:01
(UTC+00:00)

ISS - Visible Passes

Search period start: 30 November 2023 00:00
Search period end: 10 December 2023 00:00
Orbit: 416 x 417 km, 51.6° (Epoch: 30 November)

Date Brightness Start Highest point End Pass type
(mag) Time Alt. Az. Time Alt. Az. Time Alt. Az.
07 Dec -2.4 19:00:37 10° NNW 19:02:20 24° N 19:02:20 24° N visible
08 Dec -0.8 19:49:14 10° W 19:51:30 17° SW 19:53:46 10° S visible
09 Dec -2.3 18:59:38 10° NW 19:02:47 39° SW 19:05:56 10° SSE visible
